This is the latest recevied weather packets stored in our database for station/object VA3XLT-1. If no packets are shown the sender has not sent any weather packets the latest 10 day(s).
| Time | Temp. | Humidity | Pressure | Rain* | Wind** | Luminosity | Snow |
|---|---|---|---|---|---|---|---|
| 1778011357 | 13.89° C | 80% | 1007.9 hPa | 0 mm | - | - | - |
| 1778011057 | 13.89° C | 79% | 1008.1 hPa | 0 mm | - | - | - |
| 1778010757 | 14.44° C | 79% | 1008.2 hPa | 0 mm | - | - | - |
| 1778010457 | 14.44° C | 76% | 1008.3 hPa | 0 mm | - | - | - |
| 1778010157 | 14.44° C | 74% | 1008.4 hPa | 0 mm | - | - | - |
| 1778009857 | 15° C | 73% | 1008.3 hPa | 0 mm | - | - | - |
| 1778009557 | 15° C | 69% | 1008.4 hPa | 0 mm | - | - | - |
| 1778009257 | 15.56° C | 67% | 1008.4 hPa | 0 mm | - | - | - |
| 1778008957 | 15.56° C | 68% | 1008.4 hPa | 0 mm | - | - | - |
| 1778008657 | 15.56° C | 68% | 1008.4 hPa | 0 mm | - | - | - |
| 1778008357 | 15.56° C | 69% | 1008.2 hPa | 0 mm | - | - | - |
| 1778008057 | 15° C | 68% | 1008.1 hPa | 0 mm | - | - | - |
| 1778007757 | 15° C | 68% | 1008.1 hPa | 0 mm | - | - | - |
| 1778007457 | 15.56° C | 66% | 1007.9 hPa | 0 mm | - | - | - |
| 1778007157 | 16.11° C | 62% | 1007.9 hPa | 0 mm | - | - | - |
| 1778006857 | 16.11° C | 64% | 1007.8 hPa | 0 mm | - | - | - |
| 1778006557 | 16.67° C | 62% | 1007.7 hPa | 0 mm | - | - | - |
| 1778006257 | 17.22° C | 62% | 1007.6 hPa | 0 mm | - | - | - |
| 1778005957 | 17.22° C | 60% | 1007.5 hPa | 0 mm | - | - | - |
| 1778005657 | 17.22° C | 63% | 1007.7 hPa | 0 mm | - | - | - |
| 1778005357 | 17.22° C | 59% | 1007.7 hPa | 0 mm | - | - | - |
| 1778005057 | 17.22° C | 64% | 1007.4 hPa | 0 mm | - | - | - |
| 1778004757 | 16.67° C | 69% | 1007.1 hPa | 0 mm | - | - | - |
| 1778004457 | 16.11° C | 74% | 1007.3 hPa | 0 mm | - | - | - |
| 1778004157 | 16.11° C | 71% | 1007.4 hPa | 0 mm | - | - | - |
* Rain latest hour (hover to see other rain measurements)
** Current wind speed in m/s (hover to see current wind gust speed)